Location: Devore Heights
(34.2372°N, 117.4156°W)
Time: 17:53:22
(UTC+00:00)

Tiros 1 despin weight - Pass Details

Date: 22 September 2024
Orbit: 572 x 614 km, 48.2° (Epoch: 12 October)

Event Time Altitude Azimuth Distance (km) Brightness Sun altitude
Exits shadow 11:18:15 13° 355° (N) 1,751 ? -29.1°
Maximum altitude 11:18:48 14° 4° (N) 1,737 ? -29.0°
Drops below altitude 10° 11:21:08 10° 35° (NE) 1,975 ? -28.5°
Sets 11:24:33 0° 61° (ENE) 2,882 ? -27.8°
